Location: Ohmer (historical)
(38.0096°N, 122.0227°W)
Time: 07:24:20
(UTC+00:00)

Cosmos 1908 Rocket - Pass Details

Date: 14 February 2026
Orbit: 600 x 624 km, 82.5° (Epoch: 9 March)

Event Time Altitude Azimuth Distance (km) Brightness Sun altitude
Rises 13:43:51 0° 203° (SSW) 2,848 6.8 -15.4°
Reaches altitude 10° 13:46:09 10° 210° (SSW) 1,953 5.9 -14.9°
Maximum altitude 13:50:14 41° 281° (W) 894 3.9 -14.1°
Drops below altitude 10° 13:54:23 10° 352° (N) 1,981 6.0 -13.3°
Sets 13:56:44 0° 360° (N) 2,895 6.9 -12.9°
